Tracking 28081 objects as of 26-Sep-2023
HD Live streaming from Space Station
objects crossing your sky now

NSS 513 (INTELSAT 513)

Track NSS 513 (INTELSAT 513) now!
NSS 513 (INTELSAT 513) is classified as:


NORAD ID: 19121
Int'l Code: 1988-040A
Perigee: 36,209.0 km
Apogee: 36,345.4 km
Inclination: 15.1 °
Period: 1,460.9 minutes
Semi major axis: 42648 km
RCS: 9.2727 m2 (large)
Launch date: May 17, 1988
Source: Netherlands (NETH)
Launch site: FRENCH GUIANA (FRGUI)
Your satellite tracking list
Your tracking list is empty




NASA's NSSDC Master Catalog

Two Line Element Set (TLE):
1 19121U 88040A   23266.76577163 -.00000097  00000-0  00000-0 0  9992
2 19121  15.0541 356.1193 0015986 107.4099 280.2380  0.98571674104712
Source of the keplerian elements: AFSPC